Hauptseite
METAR-TAF:

METAR-TAF

Flughäfen :

Flughafen Victoria Falls

Victoria Falls, Simbabwe

Breite: 18-06S, Länge: 025-51E, Höhe: 1061 m

Beobachtung

Neuester Wetterbericht von vor 1 Stunde und 0 Minuten, um 10:00 UTC
Wind 6 kt aus Ost, variierte zwischen Nordost und Süd/Südwest
Temperatur 26°C
Luftfeuchtigkeit 48%
Luftdruck 1019 hPa
Sichtweite 10 km oder mehr
keine Wolken unter 1500 m und keine Kumulonimbus oder Gewitterwolken

METAR: FVFA 291000Z 10006KT 040V200 CAVOK 26/14 Q1019 NOSIG

Zeit: 13:00 (11:00 UTC)


TAF: fehlend

Wetterbeobachtungen und Prognosen von mehr als 4000 Flughäfen (METAR und TAF Bericht).

Die verfügbaren Stationen werden durch gelbe und rote Markierungen auf der Karte dargestellt.

Führen Sie die Maus auf sie, um den Namen der Station zu sehen.

Darauf klicken, um die Beobachtung von Wetterbeobachtungen und Prognosen zu sehen.

Um die Karte zu ändern : klicken Sie auf den grünen Tasten mit einem schwarzen Kreuz Zum Vergrößern, auf den grünen Button mit einem Gedankenstrich zu verkleinern, oder auf die grünen Pfeile für benachbarte Karten.


METAR-TAF: